Tracking 19476 objects as of 17-Jan-2019
HD Live streaming from Space Station
objects crossing your sky now

COSMOS 1130

Track COSMOS 1130 now!
10-day predictions
COSMOS 1130 is classified as:


NORAD ID: 11538
Int'l Code: 1979-084A
Perigee: 1,403.8 km
Apogee: 1,487.6 km
Inclination: 74.0 °
Period: 114.6 minutes
Semi major axis: 7816 km
RCS: 0.7035 m2 (medium)
Launch date: September 25, 1979
Source: Commonwealth of Independent States (former USSR) (CIS)
Launch site: PLESETSK MISSILE AND SPACE COMPLEX (PKMTR)
aabbcc
Your satellite tracking list
Your tracking list is empty




NASA's NSSDC Master Catalog

Two Line Element Set (TLE):
1 11538U 79084A   19015.69603149 -.00000025 +00000-0 -52140-4 0  9995
2 11538 074.0254 103.6424 0053638 246.5099 228.9000 12.56223215802563
Source of the keplerian elements: AFSPC